Flag Weather past 2 weeks in Bensheim, Hesse, Germany

Now
43 °F

Clear.


Feels Like: 43 °F
Forecast: 38 / 51 °F
Wind: 2 mph from North

Location: Baden Wurttemberg - Neuostheim

Current Time: Nov 22, 2014 at 10:48:35 PM

Latest Report: Nov 22, 2014 at 7:50 PM


Visibility: 4 mi

Pressure: 30.15 "Hg

Humidity: 93%

Dew point: 41 °F

Location of BensheimLocation

Historic Weather in Bensheim — Graph

°F

Bensheim temperature yesterday

Maximum temperature yesterday: 48 °F (at 11:50 AM)
Minimum temperature yesterday: 32 °F (at 6:50 AM)
Average temperature yesterday: 42 °F

Past Weeks' High & Low Weather Summary

 TemperatureHumidityPressure
High57 °F (Nov 8, 1:50 PM)100% (Nov 9, 4:50 AM)30.33 "Hg (Nov 9, 4:50 AM)
Low32 °F (Nov 21, 6:50 AM)59% (Nov 8, 3:50 PM)29.59 "Hg (Nov 15, 4:50 PM)
Average48 °F88%29.89 "Hg
* Reported Nov 7 7:20 PM — Nov 22 7:50 PM, Bensheim, Weather by CustomWeather, © 2014

Note: Actual official high and low records may vary slightly from our data, if they occured in-between our weather recording intervals... More about our weather records

Advertising

Bensheim weather history for previous 24 hours

 ConditionsComfort  
Time TempWeatherWind HumidityBarometerVisibility
7:50 PM
Nov 22
43 °FClear.2 mph93%30.15 "Hg4 mi
7:20 PM43 °FClear.2 mph93%30.15 "Hg5 mi
6:50 PM45 °FClear.2 mph93%30.15 "Hg6 mi
6:20 PM45 °FClear.2 mph93%30.15 "Hg10 mi
5:50 PM46 °FClear.2 mph87%30.15 "Hg10 mi
5:20 PM48 °FClear.3 mph87%30.15 "Hg10 mi
4:50 PM48 °FPassing clouds.5 mph87%30.15 "Hg6 mi
4:20 PM50 °FPassing clouds.3 mph82%30.15 "Hg6 mi
3:50 PM52 °FPartly sunny.3 mph77%30.15 "Hg6 mi
3:20 PM52 °FPassing clouds.2 mph77%30.15 "Hg6 mi
2:50 PM52 °FPassing clouds.2 mph72%30.15 "Hg6 mi
2:20 PM52 °FSunny.1 mph72%30.15 "Hg10 mi
1:50 PM52 °FClear.2 mph72%30.15 "Hg6 mi
1:20 PM52 °FPassing clouds.2 mph72%30.15 "Hg6 mi
12:50 PM50 °FPassing clouds.2 mph71%30.15 "Hg6 mi
12:20 PM50 °FSunny.2 mph76%30.15 "Hg10 mi
11:50 AM48 °FPassing clouds.2 mph76%30.18 "Hg6 mi
11:20 AM48 °FPassing clouds.1 mph71%30.18 "Hg6 mi
10:50 AM46 °FPassing clouds.1 mph76%30.18 "Hg6 mi
10:20 AM45 °FPassing clouds.2 mph81%30.18 "Hg6 mi
9:50 AM45 °FPassing clouds.No wind81%30.18 "Hg6 mi
9:20 AM43 °FPassing clouds.No wind93%30.15 "Hg6 mi
8:50 AM41 °FPassing clouds.2 mph93%30.15 "Hg6 mi
8:20 AM41 °FOvercast.No wind93%30.15 "Hg6 mi
7:50 AM41 °FOvercast.1 mph93%30.15 "Hg6 mi
7:20 AM41 °FOvercast.3 mph93%30.15 "Hg6 mi
Weather by CustomWeather, © 2014

See weather overviewHow to use our weather pages